| time (UTC) | temp C | wind direction | speed KPH | gust KPH | rain 1hr cm | rain 24hr cm | rain mn cm | humidity % | barometer mb |
| 20260504195057 | 22 | 150 | 3.2 | 4.8 | 0.00 | 0.00 | 0.00 | 34 | 1010.5 |
| 20260504194554 | 23 | 148 | 6.4 | 9.7 | 0.00 | 0.00 | 0.00 | 31 | 1010.5 |
| 20260504194049 | 23 | 143 | 6.4 | 12.9 | 0.00 | 0.00 | 0.00 | 33 | 1010.5 |
| 20260504193546 | 23 | 233 | 3.2 | 4.8 | 0.00 | 0.00 | 0.00 | 35 | 1010.4 |
| 20260504193045 | 22 | 116 | 3.2 | 3.2 | 0.00 | 0.00 | 0.00 | 33 | 1010.5 |
| 20260504192543 | 23 | 136 | 0.0 | 1.6 | 0.00 | 0.00 | 0.00 | 33 | 1010.7 |
| 20260504192041 | 23 | 125 | 0.0 | 1.6 | 0.00 | 0.00 | 0.00 | 33 | 1010.5 |
| 20260504191538 | 23 | 175 | 3.2 | 3.2 | 0.00 | 0.00 | 0.00 | 32 | 1010.9 |
| 20260504191034 | 23 | 281 | 6.4 | 6.4 | 0.00 | 0.00 | 0.00 | 33 | 1010.9 |
| 20260504190531 | 22 | 156 | 3.2 | 6.4 | 0.00 | 0.00 | 0.00 | 33 | 1011.1 |
| 20260504190027 | 22 | 26 | 1.6 | 1.6 | 0.00 | 0.00 | 0.00 | 32 | 1011.1 |
| 20260504185524 | 22 | 117 | 3.2 | 4.8 | 0.00 | 0.00 | 0.00 | 32 | 1011.2 |
| 20260504185020 | 22 | 328 | 6.4 | 11.3 | 0.00 | 0.00 | 0.00 | 33 | 1011.2 |
| 20260504184515 | 22 | 122 | 0.0 | 1.6 | 0.00 | 0.00 | 0.00 | 34 | 1011.2 |
| 20260504184011 | 22 | 162 | 3.2 | 4.8 | 0.00 | 0.00 | 0.00 | 37 | 1011.3 |
| 20260504183509 | 23 | 359 | 6.4 | 11.3 | 0.00 | 0.00 | 0.00 | 34 | 1011.4 |
| 20260504183007 | 22 | 16 | 9.7 | 12.9 | 0.00 | 0.00 | 0.00 | 34 | 1011.4 |
| 20260504182503 | 22 | 350 | 11.3 | 12.9 | 0.00 | 0.00 | 0.00 | 35 | 1011.5 |
| 20260504182001 | 22 | 250 | 3.2 | 3.2 | 0.00 | 0.00 | 0.00 | 34 | 1011.6 |
| 20260504181457 | 22 | 186 | 4.8 | 9.7 | 0.00 | 0.00 | 0.00 | 38 | 1011.4 |
| 20260504180956 | 21 | 7 | 6.4 | 6.4 | 0.00 | 0.00 | 0.00 | 34 | 1011.6 |
| 20260504180455 | 21 | 321 | 8.0 | 9.7 | 0.00 | 0.00 | 0.00 | 35 | 1011.6 |
| 20260504175953 | 22 | 33 | 3.2 | 6.4 | 0.00 | 0.00 | 0.00 | 34 | 1011.6 |
| 20260504175450 | 21 | 320 | 3.2 | 4.8 | 0.00 | 0.00 | 0.00 | 35 | 1011.8 |
| 20260504174947 | 22 | 21 | 9.7 | 12.9 | 0.00 | 0.00 | 0.00 | 33 | 1011.9 |
| 20260504174444 | 21 | 216 | 4.8 | 6.4 | 0.00 | 0.00 | 0.00 | 35 | 1011.9 |
| 20260504173942 | 21 | 125 | 1.6 | 1.6 | 0.00 | 0.00 | 0.00 | 36 | 1012.0 |
| 20260504173437 | 21 | 176 | 8.0 | 11.3 | 0.00 | 0.00 | 0.00 | 35 | 1012.2 |
| 20260504172936 | 21 | 153 | 3.2 | 3.2 | 0.00 | 0.00 | 0.00 | 37 | 1012.0 |
| 20260504172431 | 21 | 49 | 3.2 | 4.8 | 0.00 | 0.00 | 0.00 | 35 | 1012.1 |
| 20260504171928 | 20 | 234 | 4.8 | 6.4 | 0.00 | 0.00 | 0.00 | 36 | 1012.3 |
| 20260504171425 | 21 | 1 | 6.4 | 6.4 | 0.00 | 0.00 | 0.00 | 36 | 1012.3 |
| 20260504170922 | 21 | 131 | 4.8 | 9.7 | 0.00 | 0.00 | 0.00 | 36 | 1012.5 |
| 20260504170418 | 20 | 126 | 1.6 | 3.2 | 0.00 | 0.00 | 0.00 | 36 | 1012.5 |
| 20260504160337 | 20 | 166 | 3.2 | 4.8 | 0.00 | 0.00 | 0.00 | 35 | 1013.4 |
| 20260504150802 | 18 | 336 | 9.7 | 12.9 | 0.00 | 0.00 | 0.00 | 39 | 1013.8 |
| 20260504150259 | 18 | 162 | 12.9 | 17.7 | 0.00 | 0.00 | 0.00 | 40 | 1013.8 |
| 20260504141229 | 17 | 83 | 4.8 | 6.4 | 0.00 | 0.00 | 0.00 | 50 | 1014.1 |
| 20260504140725 | 17 | 153 | 1.6 | 3.2 | 0.00 | 0.00 | 0.00 | 50 | 1014.1 |
| 20260504140220 | 17 | 8 | 4.8 | 9.7 | 0.00 | 0.00 | 0.00 | 52 | 1014.1 |
| 20260504130649 | 15 | 359 | 3.2 | 4.8 | 0.00 | 0.00 | 0.00 | 59 | 1014.4 |
| 20260504130145 | 15 | 155 | 3.2 | 4.8 | 0.00 | 0.00 | 0.00 | 59 | 1014.5 |
| 20260504120110 | 12 | 173 | 1.6 | 1.6 | 0.00 | 0.00 | 0.00 | 67 | 1014.6 |
| 20260504110537 | 10 | 174 | 1.6 | 1.6 | 0.00 | 0.00 | 0.00 | 74 | 1015.1 |
| 20260504100459 | 8 | 267 | 4.8 | 4.8 | 0.00 | 0.00 | 0.00 | 73 | 1014.9 |
| 20260504081857 | 7 | 133 | 0.0 | 0.0 | 0.00 | 0.00 | 0.00 | 65 | 1015.1 |
| 20260504081354 | 7 | 131 | 0.0 | 0.0 | 0.00 | 0.00 | 0.00 | 63 | 1014.9 |
| 20260504080850 | 7 | 97 | 0.0 | 1.6 | 0.00 | 0.00 | 0.00 | 61 | 1014.9 |
| 20260504080348 | 7 | 126 | 0.0 | 0.0 | 0.00 | 0.00 | 0.00 | 62 | 1014.9 |
| 20260504070315 | 7 | 142 | 0.0 | 0.0 | 0.00 | 0.00 | 0.00 | 57 | 1014.8 |
| 20260504060235 | 8 | 123 | 0.0 | 0.0 | 0.00 | 0.00 | 0.00 | 56 | 1014.8 |
| 20260504050703 | 7 | 148 | 0.0 | 0.0 | 0.00 | 0.00 | 0.00 | 57 | 1014.6 |
| 20260504050200 | 7 | 142 | 0.0 | 0.0 | 0.00 | 0.00 | 0.00 | 57 | 1014.8 |
| 20260504045658 | 7 | 138 | 0.0 | 0.0 | 0.00 | 0.00 | 0.00 | 56 | 1014.9 |
| 20260504045157 | 7 | 142 | 0.0 | 0.0 | 0.00 | 0.00 | 0.00 | 56 | 1014.8 |
| 20260504044655 | 8 | 143 | 0.0 | 0.0 | 0.00 | 0.00 | 0.00 | 57 | 1014.7 |
| 20260504044152 | 8 | 146 | 0.0 | 0.0 | 0.00 | 0.00 | 0.00 | 57 | 1014.8 |
| 20260504043649 | 8 | 147 | 0.0 | 0.0 | 0.00 | 0.00 | 0.00 | 57 | 1014.5 |
| 20260504043146 | 8 | 126 | 0.0 | 0.0 | 0.00 | 0.00 | 0.00 | 56 | 1014.6 |
| 20260504042644 | 8 | 147 | 0.0 | 0.0 | 0.00 | 0.00 | 0.00 | 54 | 1014.5 |
| 20260504042140 | 8 | 149 | 0.0 | 0.0 | 0.00 | 0.00 | 0.00 | 53 | 1014.6 |
| 20260504041636 | 8 | 149 | 0.0 | 0.0 | 0.00 | 0.00 | 0.00 | 55 | 1014.4 |
| 20260504041132 | 8 | 147 | 0.0 | 0.0 | 0.00 | 0.00 | 0.00 | 56 | 1014.3 |
| 20260504040630 | 8 | 144 | 0.0 | 0.0 | 0.00 | 0.00 | 0.00 | 54 | 1014.4 |
| 20260504040127 | 9 | 157 | 0.0 | 0.0 | 0.00 | 0.00 | 0.00 | 53 | 1014.3 |
| 20260504035623 | 9 | 140 | 0.0 | 0.0 | 0.00 | 0.00 | 0.00 | 51 | 1014.3 |
| 20260504035120 | 9 | 147 | 0.0 | 0.0 | 0.00 | 0.00 | 0.00 | 51 | 1014.2 |
| 20260504034618 | 9 | 142 | 0.0 | 0.0 | 0.00 | 0.00 | 0.00 | 51 | 1014.2 |
| 20260504034114 | 9 | 148 | 0.0 | 0.0 | 0.00 | 0.00 | 0.00 | 51 | 1014.2 |
| 20260504033612 | 9 | 30 | 0.0 | 1.6 | 0.00 | 0.00 | 0.00 | 54 | 1014.1 |
| 20260504033109 | 9 | 143 | 0.0 | 0.0 | 0.00 | 0.00 | 0.00 | 51 | 1014.2 |
| 20260504032606 | 9 | 129 | 0.0 | 0.0 | 0.00 | 0.00 | 0.00 | 51 | 1014.2 |
| 20260504032103 | 9 | 146 | 0.0 | 0.0 | 0.00 | 0.00 | 0.00 | 52 | 1014.0 |
| 20260504031600 | 9 | 138 | 0.0 | 0.0 | 0.00 | 0.00 | 0.00 | 50 | 1014.1 |
| 20260504031056 | 10 | 152 | 0.0 | 0.0 | 0.00 | 0.00 | 0.00 | 50 | 1014.0 |
| 20260504030553 | 10 | 148 | 0.0 | 0.0 | 0.00 | 0.00 | 0.00 | 49 | 1013.9 |
| 20260504030049 | 10 | 157 | 0.0 | 0.0 | 0.00 | 0.00 | 0.00 | 49 | 1014.0 |
| 20260504025547 | 10 | 141 | 0.0 | 0.0 | 0.00 | 0.00 | 0.00 | 49 | 1014.1 |
| 20260504025044 | 10 | 162 | 0.0 | 0.0 | 0.00 | 0.00 | 0.00 | 50 | 1014.0 |
| 20260504024541 | 9 | 154 | 0.0 | 0.0 | 0.00 | 0.00 | 0.00 | 50 | 1014.1 |
| 20260504024038 | 9 | 149 | 0.0 | 0.0 | 0.00 | 0.00 | 0.00 | 50 | 1014.1 |
| 20260504023534 | 9 | 142 | 0.0 | 0.0 | 0.00 | 0.00 | 0.00 | 50 | 1014.2 |
| 20260504023030 | 9 | 141 | 0.0 | 0.0 | 0.00 | 0.00 | 0.00 | 51 | 1014.0 |
| 20260504022526 | 10 | 130 | 0.0 | 0.0 | 0.00 | 0.00 | 0.00 | 49 | 1014.0 |
| 20260504022023 | 10 | 146 | 0.0 | 0.0 | 0.00 | 0.00 | 0.00 | 50 | 1014.0 |
| 20260504021520 | 10 | 139 | 0.0 | 0.0 | 0.00 | 0.00 | 0.00 | 49 | 1014.2 |
| 20260504021017 | 10 | 138 | 0.0 | 0.0 | 0.00 | 0.00 | 0.00 | 49 | 1014.0 |
| 20260504020514 | 10 | 150 | 0.0 | 0.0 | 0.00 | 0.00 | 0.00 | 49 | 1014.1 |
| 20260504020011 | 10 | 151 | 0.0 | 0.0 | 0.00 | 0.00 | 0.00 | 49 | 1014.0 |
| 20260504015507 | 10 | 153 | 0.0 | 0.0 | 0.00 | 0.00 | 0.00 | 51 | 1014.0 |
| 20260504015003 | 10 | 146 | 0.0 | 0.0 | 0.00 | 0.00 | 0.00 | 50 | 1014.1 |
| 20260504014459 | 10 | 145 | 0.0 | 0.0 | 0.00 | 0.00 | 0.00 | 50 | 1014.0 |
| 20260504013956 | 10 | 155 | 0.0 | 0.0 | 0.00 | 0.00 | 0.00 | 48 | 1013.9 |
| 20260504013454 | 10 | 143 | 0.0 | 0.0 | 0.00 | 0.00 | 0.00 | 50 | 1013.9 |
| 20260504012950 | 10 | 148 | 0.0 | 0.0 | 0.00 | 0.00 | 0.00 | 48 | 1013.9 |
| 20260504012448 | 10 | 144 | 0.0 | 0.0 | 0.00 | 0.00 | 0.00 | 48 | 1014.0 |
| 20260504011946 | 10 | 149 | 0.0 | 0.0 | 0.00 | 0.00 | 0.00 | 48 | 1013.8 |
| 20260504011442 | 10 | 150 | 0.0 | 0.0 | 0.00 | 0.00 | 0.00 | 48 | 1013.8 |
| 20260504010938 | 10 | 148 | 0.0 | 0.0 | 0.00 | 0.00 | 0.00 | 47 | 1013.7 |
| 20260504010434 | 10 | 155 | 0.0 | 0.0 | 0.00 | 0.00 | 0.00 | 46 | 1013.5 |
| 20260504005930 | 11 | 148 | 0.0 | 0.0 | 0.00 | 0.00 | 0.00 | 45 | 1013.5 |
| 20260504005427 | 11 | 148 | 0.0 | 0.0 | 0.00 | 0.00 | 0.00 | 45 | 1013.5 |
| 20260504004925 | 11 | 151 | 0.0 | 0.0 | 0.00 | 0.00 | 0.00 | 44 | 1013.5 |
| 20260504004422 | 11 | 161 | 0.0 | 0.0 | 0.00 | 0.00 | 0.00 | 44 | 1013.3 |
| 20260504003919 | 11 | 140 | 0.0 | 0.0 | 0.00 | 0.00 | 0.00 | 45 | 1013.5 |
| 20260504003415 | 11 | 175 | 0.0 | 0.0 | 0.00 | 0.00 | 0.00 | 43 | 1013.2 |
| 20260504002912 | 11 | 148 | 0.0 | 0.0 | 0.00 | 0.00 | 0.00 | 43 | 1013.2 |
| 20260504002409 | 11 | 144 | 0.0 | 0.0 | 0.00 | 0.00 | 0.00 | 42 | 1013.2 |
| 20260504001907 | 12 | 147 | 0.0 | 0.0 | 0.00 | 0.00 | 0.00 | 41 | 1012.9 |
| 20260504001404 | 12 | 149 | 0.0 | 0.0 | 0.00 | 0.00 | 0.00 | 41 | 1013.0 |
| 20260504000900 | 12 | 142 | 0.0 | 0.0 | 0.00 | 0.00 | 0.00 | 40 | 1013.0 |
| 20260504000358 | 12 | 147 | 0.0 | 0.0 | 0.00 | 0.00 | 0.00 | 41 | 1013.0 |
| 20260503235855 | 12 | 145 | 0.0 | 0.0 | 0.00 | 0.00 | 0.00 | 40 | 1012.8 |
| 20260503235353 | 13 | 140 | 0.0 | 0.0 | 0.00 | 0.00 | 0.00 | 42 | 1012.8 |
| 20260503234850 | 13 | 146 | 0.0 | 0.0 | 0.00 | 0.00 | 0.00 | 39 | 1012.8 |
| 20260503234348 | 13 | 300 | 3.2 | 4.8 | 0.00 | 0.00 | 0.00 | 36 | 1012.9 |
| 20260503233845 | 13 | 331 | 4.8 | 6.4 | 0.00 | 0.00 | 0.00 | 35 | 1012.8 |
| 20260503233341 | 14 | 98 | 3.2 | 4.8 | 0.00 | 0.00 | 0.00 | 37 | 1012.7 |
| 20260503232837 | 14 | 127 | 1.6 | 3.2 | 0.00 | 0.00 | 0.00 | 35 | 1012.7 |
| 20260503232335 | 14 | 125 | 4.8 | 6.4 | 0.00 | 0.00 | 0.00 | 35 | 1012.5 |
| 20260503231833 | 14 | 329 | 3.2 | 3.2 | 0.00 | 0.00 | 0.00 | 35 | 1012.6 |
| 20260503231330 | 15 | 262 | 3.2 | 4.8 | 0.00 | 0.00 | 0.00 | 35 | 1012.7 |
| 20260503230825 | 15 | 222 | 6.4 | 11.3 | 0.00 | 0.00 | 0.00 | 32 | 1012.4 |
| 20260503230323 | 15 | 77 | 1.6 | 1.6 | 0.00 | 0.00 | 0.00 | 35 | 1012.5 |
| 20260503225820 | 15 | 70 | 4.8 | 6.4 | 0.00 | 0.00 | 0.00 | 35 | 1012.3 |
| 20260503225316 | 15 | 1 | 3.2 | 4.8 | 0.00 | 0.00 | 0.00 | 35 | 1012.4 |
| 20260503224813 | 15 | 293 | 3.2 | 4.8 | 0.00 | 0.00 | 0.00 | 35 | 1012.4 |
| 20260503224310 | 15 | 336 | 11.3 | 17.7 | 0.00 | 0.00 | 0.00 | 32 | 1012.5 |
| 20260503223808 | 15 | 227 | 6.4 | 6.4 | 0.00 | 0.00 | 0.00 | 32 | 1012.4 |
| 20260503223305 | 15 | 354 | 8.0 | 11.3 | 0.00 | 0.00 | 0.00 | 31 | 1012.4 |
| 20260503222800 | 15 | 141 | 3.2 | 4.8 | 0.00 | 0.00 | 0.00 | 34 | 1012.4 |
| 20260503222259 | 15 | 102 | 4.8 | 9.7 | 0.00 | 0.00 | 0.00 | 32 | 1012.4 |
| 20260503221757 | 15 | 293 | 9.7 | 11.3 | 0.00 | 0.00 | 0.00 | 31 | 1012.4 |
| 20260503221255 | 16 | 152 | 4.8 | 4.8 | 0.00 | 0.00 | 0.00 | 32 | 1012.1 |
| 20260503220751 | 16 | 123 | 1.6 | 3.2 | 0.00 | 0.00 | 0.00 | 33 | 1012.4 |
| 20260503220248 | 15 | 32 | 4.8 | 6.4 | 0.00 | 0.00 | 0.00 | 34 | 1012.4 |
| 20260503215745 | 15 | 348 | 9.7 | 12.9 | 0.00 | 0.00 | 0.00 | 31 | 1012.2 |
| 20260503215242 | 15 | 222 | 3.2 | 4.8 | 0.00 | 0.00 | 0.00 | 32 | 1012.4 |
| 20260503214740 | 15 | 42 | 6.4 | 12.9 | 0.00 | 0.00 | 0.00 | 31 | 1012.4 |
| 20260503214236 | 16 | 121 | 6.4 | 6.4 | 0.00 | 0.00 | 0.00 | 32 | 1012.4 |
| 20260503213735 | 15 | 264 | 4.8 | 6.4 | 0.00 | 0.00 | 0.00 | 32 | 1012.3 |
| 20260503213232 | 15 | 97 | 6.4 | 11.3 | 0.00 | 0.00 | 0.00 | 33 | 1012.1 |
| 20260503212728 | 15 | 5 | 6.4 | 9.7 | 0.00 | 0.00 | 0.00 | 32 | 1012.2 |
| 20260503212226 | 15 | 332 | 6.4 | 11.3 | 0.00 | 0.00 | 0.00 | 31 | 1012.3 |
| 20260503211723 | 15 | 70 | 6.4 | 6.4 | 0.00 | 0.00 | 0.00 | 34 | 1012.2 |
| 20260503211219 | 15 | 295 | 11.3 | 16.1 | 0.00 | 0.00 | 0.00 | 33 | 1012.3 |
| 20260503210715 | 15 | 343 | 11.3 | 14.5 | 0.00 | 0.00 | 0.00 | 30 | 1012.4 |
| 20260503210213 | 15 | 292 | 6.4 | 9.7 | 0.00 | 0.00 | 0.00 | 34 | 1012.2 |
| 20260503205708 | 15 | 193 | 4.8 | 9.7 | 0.00 | 0.00 | 0.00 | 33 | 1012.3 |
| 20260503205204 | 15 | 342 | 9.7 | 11.3 | 0.00 | 0.00 | 0.00 | 33 | 1012.2 |
| 20260503204700 | 15 | 348 | 6.4 | 9.7 | 0.00 | 0.00 | 0.00 | 36 | 1012.4 |
| 20260503204159 | 15 | 22 | 12.9 | 16.1 | 0.00 | 0.00 | 0.00 | 34 | 1012.5 |
| 20260503203655 | 15 | 3 | 8.0 | 9.7 | 0.00 | 0.00 | 0.00 | 32 | 1012.5 |
| 20260503203153 | 15 | 354 | 14.5 | 17.7 | 0.00 | 0.00 | 0.00 | 31 | 1012.3 |
| 20260503202650 | 14 | 316 | 6.4 | 9.7 | 0.00 | 0.00 | 0.00 | 35 | 1012.6 |
| 20260503202148 | 14 | 296 | 6.4 | 9.7 | 0.00 | 0.00 | 0.00 | 35 | 1012.5 |
| 20260503201646 | 15 | 218 | 4.8 | 6.4 | 0.00 | 0.00 | 0.00 | 33 | 1012.4 |
| 20260503201143 | 15 | 210 | 6.4 | 9.7 | 0.00 | 0.00 | 0.00 | 32 | 1012.7 |
| 20260503200639 | 15 | 2 | 11.3 | 12.9 | 0.00 | 0.00 | 0.00 | 33 | 1012.6 |
| 20260503200135 | 15 | 144 | 6.4 | 9.7 | 0.00 | 0.00 | 0.00 | 34 | 1012.6 |
| 20260503195633 | 15 | 226 | 6.4 | 9.7 | 0.00 | 0.00 | 0.00 | 34 | 1012.5 |